千帆星座-136(QIANFAN-136)

导读

QIANFAN-136(NORAD编号69081)是中国千帆星座部署的低轨宽频多媒体卫星,千帆星座由中国企业主导建设,旨在构建全球覆盖的低轨卫星互联网,提供宽带通信、遥感融合服务。 作为星座组网的一部分,该卫星运行于近地轨道,主要承担增强星座网络覆盖容量,支持天地一体化信息传输任务,可服务于物联网、海事通信、偏远地区互联网接入等应用场景。目前该卫星处于在轨运行状态,持续为千帆星座的全球服务能力构建提供支撑。

Basic Information
目录编号:
69081
目录名称:
QIANFAN-135
国际标识:
2026-104J
轨道中心:
EARTH
卫星名称:
千帆星座-136
卫星全名:
千帆星座-136(QIANFAN-136)
卫星状态:
在轨 (已飞行77 天)
发射日期:
2026-05-12 UTC
国别 :
中国 (CN)
星等 :
--
Orbit Information
数据来源 国际轨道数据 AOE轨道数据
星历时间 2026-07-28T03:42:15+0800
8小时前
查看轨道信息
2026-07-23T07:00:00+0800
5天前
查看轨道信息
半长轴 7446.635km 7446.615km
偏心率 0.0001673 0.0007396
轨道倾角 88.991° 88.990°
近地点辐角 91.110° 349.385°
升交点赤经 337.335° 337.830°
平近点角 269.025° 134.409°
近地点 1067.252km 1062.97km
远地点 1069.744km 1073.986km
周期 106.586分钟 106.585分钟
每日圈数 13.510228 13.510283
Detailed Information
卫星平台:
136
覆盖范围:
全球
运营商:
上海垣信卫星科技有限公司
运营商所在国:
中国
使用方式:
暂无
Satellite Introduction
千帆星座,也被称为“G60星链”计划,是中国版“星链”的重要组成部分,旨在打造一个由1.4万多颗低轨宽频多媒体卫星构成的庞大星座。千帆星座计划由上海垣信卫星科技有限公司负责实施,于2023年启动建设。该项目是我国第二个低轨卫星大星座,旨在通过构建庞大的卫星网络,为全球用户提供高质量的通信和宽带互联网服务。
2D Orbit Map
3D Orbit Map
Orbit Altitude Analysis Chart
Orbit Inclination Analysis Chart
Orbit Comprehensive Analysis Chart
View Comprehensive Chart